User: anonymous   Login
Location: Estes Par
(40.3770°N, 105.5210°W)
Time: 09:08:44
(UTC-07:00)
Language:

N. Korean satellite - Orbit

View from above orbital plane
View from above orbital plane
View from above satellite
View from above satellite

Ground track
Ground track

The orbit data is extracted from the following two-line orbital elements,

1 39026U 12072A   17348.95101012 +.00001465 +00000-0 +58296-4 0  9994
2 39026 097.2161 000.6131 0038162 256.1764 103.5227 15.26189123277497
Epoch (UTC): 14 December 2017 22:49:27
Eccentricity: 0.0038162
inclination: 97.2161°
perigee height: 461 km
apogee height: 513 km
right ascension of ascending node: 0.6131°
argument of perigee: 256.1764°
revolutions per day: 15.26189123
mean anomaly at epoch: 103.5227°
orbit number at epoch: 27749

The dashed part of the orbit path shows where the satellite is in the earth's shadow,  

DLR